• Em Portugal
  • Lista de países
  • Para 7 dias
  • Temperatura da água
  • Mapas de satélite
  • Mapa do tempo
  • Widgets de tempo
  • user-avatar
    Iniciar Sessão

    Previsão horária em Seki

    Hoje, 18 Julho, Quarta-feira

    Tempo Temperatura Precipitação Vento Pressão Humidade
    00:00 +18°C° 0 mm 2 m/s 739 mmHg 96%
    01:00 +18°C° 0 mm 2 m/s 739 mmHg 97%
    02:00 +18°C° 0 mm 2 m/s 739 mmHg 97%
    03:00 +18°C° 0 mm 2 m/s 739 mmHg 97%
    04:00 +17°C° 0 mm 2 m/s 739 mmHg 97%
    05:00 +18°C° 0,1 mm 2 m/s 739 mmHg 95%
    06:00 +19°C° 0,1 mm 2 m/s 739 mmHg 92%
    07:00 +20°C° 0,1 mm 2 m/s 739 mmHg 90%
    08:00 +21°C° 0,3 mm 2 m/s 739 mmHg 85%
    09:00 +24°C° 0,3 mm 2 m/s 739 mmHg 80%
    10:00 +25°C° 0,3 mm 1 m/s 739 mmHg 75%
    11:00 +25°C° 0,3 mm 2 m/s 739 mmHg 72%
    12:00 +26°C° 0,3 mm 2 m/s 739 mmHg 70%
    13:00 +27°C° 0,3 mm 2 m/s 739 mmHg 67%
    14:00 +27°C° 0,3 mm 2 m/s 739 mmHg 68%
    15:00 +27°C° 0,3 mm 2 m/s 739 mmHg 68%
    16:00 +27°C° 0,3 mm 2 m/s 739 mmHg 69%
    17:00 +26°C° 0,6 mm 2 m/s 739 mmHg 74%
    18:00 +25°C° 0,6 mm 2 m/s 739 mmHg 79%
    19:00 +24°C° 0,6 mm 2 m/s 739 mmHg 84%
    20:00 +24°C° 0,5 mm 2 m/s 739 mmHg 87%
    21:00 +23°C° 0,5 mm 2 m/s 740 mmHg 90%
    22:00 +21°C° 0,5 mm 2 m/s 740 mmHg 93%
    23:00 +21°C° 0,2 mm 2 m/s 740 mmHg 95%

    Amanhã, 19 Julho, Quinta-feira

    Tempo Temperatura Precipitação Vento Pressão Humidade
    00:00 +21°C° 0,2 mm 3 m/s 740 mmHg 96%
    01:00 +20°C° 0,2 mm 3 m/s 740 mmHg 97%
    02:00 +20°C° 0,2 mm 3 m/s 741 mmHg 97%
    03:00 +20°C° 0,2 mm 3 m/s 741 mmHg 97%
    04:00 +20°C° 0,2 mm 3 m/s 741 mmHg 98%
    05:00 +21°C° 0,4 mm 4 m/s 741 mmHg 96%
    06:00 +21°C° 0,4 mm 4 m/s 742 mmHg 95%
    07:00 +22°C° 0,4 mm 4 m/s 742 mmHg 93%
    08:00 +23°C° 0,2 mm 4 m/s 742 mmHg 88%
    09:00 +23°C° 0,2 mm 5 m/s 742 mmHg 84%
    10:00 +25°C° 0,2 mm 5 m/s 743 mmHg 79%
    11:00 +26°C° 0,5 mm 5 m/s 743 mmHg 76%
    12:00 +26°C° 0,5 mm 5 m/s 743 mmHg 74%
    13:00 +26°C° 0,5 mm 6 m/s 742 mmHg 72%
    14:00 +26°C° 0,2 mm 6 m/s 743 mmHg 72%
    15:00 +26°C° 0,2 mm 5 m/s 743 mmHg 72%
    16:00 +26°C° 0,2 mm 5 m/s 743 mmHg 72%
    17:00 +25°C° 0,2 mm 5 m/s 743 mmHg 75%
    18:00 +23°C° 0,2 mm 5 m/s 743 mmHg 79%
    19:00 +22°C° 0,2 mm 5 m/s 743 mmHg 82%
    20:00 +21°C° 0,1 mm 4 m/s 743 mmHg 85%
    21:00 +20°C° 0,1 mm 4 m/s 743 mmHg 88%
    22:00 +20°C° 0,1 mm 4 m/s 744 mmHg 91%
    23:00 +19°C° 0 mm 4 m/s 744 mmHg 93%

    Depois de amanhã, 20 Julho, Sexta-feira

    Tempo Temperatura Precipitação Vento Pressão Humidade
    00:00 +19°C° 0 mm 4 m/s 744 mmHg 94%
    01:00 +18°C° 0 mm 3 m/s 743 mmHg 95%
    02:00 +18°C° 0 mm 3 m/s 744 mmHg 96%
    03:00 +18°C° 0 mm 3 m/s 744 mmHg 96%
    04:00 +18°C° 0 mm 3 m/s 744 mmHg 96%
    05:00 +19°C° 0 mm 4 m/s 744 mmHg 92%
    06:00 +20°C° 0 mm 4 m/s 744 mmHg 88%
    07:00 +21°C° 0 mm 4 m/s 744 mmHg 84%
    08:00 +22°C° 0,2 mm 4 m/s 744 mmHg 77%
    09:00 +25°C° 0,2 mm 5 m/s 744 mmHg 70%
    10:00 +26°C° 0,2 mm 5 m/s 744 mmHg 63%
    11:00 +27°C° 0,1 mm 5 m/s 744 mmHg 59%
    12:00 +28°C° 0,1 mm 5 m/s 744 mmHg 56%
    13:00 +28°C° 0,1 mm 5 m/s 744 mmHg 52%
    14:00 +28°C° 0 mm 5 m/s 744 mmHg 53%
    15:00 +28°C° 0 mm 5 m/s 744 mmHg 55%
    16:00 +28°C° 0 mm 5 m/s 744 mmHg 56%
    17:00 +26°C° 0,1 mm 4 m/s 744 mmHg 62%
    18:00 +25°C° 0,1 mm 4 m/s 744 mmHg 69%
    19:00 +22°C° 0,1 mm 3 m/s 744 mmHg 75%
    20:00 +21°C° 0 mm 3 m/s 744 mmHg 79%
    21:00 +20°C° 0 mm 3 m/s 744 mmHg 83%
    22:00 +19°C° 0 mm 3 m/s 744 mmHg 86%
    23:00 +19°C° 0 mm 3 m/s 744 mmHg 89%

    21 Julho, Sábado

    Tempo Temperatura Precipitação Vento Pressão Humidade
    00:00 +18°C° 0 mm 3 m/s 744 mmHg 91%
    01:00 +18°C° 0 mm 3 m/s 744 mmHg 93%
    02:00 +17°C° 0 mm 2 m/s 744 mmHg 94%
    03:00 +17°C° 0 mm 2 m/s 744 mmHg 95%
    04:00 +17°C° 0 mm 2 m/s 744 mmHg 95%
    05:00 +18°C° 0 mm 2 m/s 744 mmHg 89%
    06:00 +19°C° 0 mm 2 m/s 744 mmHg 83%
    07:00 +21°C° 0 mm 3 m/s 744 mmHg 77%
    08:00 +22°C° 0 mm 3 m/s 744 mmHg 71%
    09:00 +25°C° 0 mm 3 m/s 744 mmHg 64%
    10:00 +26°C° 0 mm 3 m/s 744 mmHg 57%
    11:00 +27°C° 0 mm 3 m/s 744 mmHg 55%
    12:00 +27°C° 0 mm 3 m/s 744 mmHg 53%
    13:00 +28°C° 0 mm 3 m/s 744 mmHg 51%
    14:00 +28°C° 0 mm 3 m/s 743 mmHg 52%
    15:00 +28°C° 0 mm 3 m/s 743 mmHg 53%
    16:00 +28°C° 0 mm 3 m/s 743 mmHg 54%
    17:00 +26°C° 0 mm 2 m/s 743 mmHg 59%
    18:00 +25°C° 0 mm 2 m/s 743 mmHg 65%
    19:00 +24°C° 0 mm 1 m/s 743 mmHg 71%
    20:00 +22°C° 0 mm 1 m/s 743 mmHg 74%
    21:00 +21°C° 0 mm 1 m/s 743 mmHg 76%
    22:00 +20°C° 0 mm 1 m/s 743 mmHg 79%
    23:00 +20°C° 0 mm 1 m/s 743 mmHg 80%

    22 Julho, Domingo

    Tempo Temperatura Precipitação Vento Pressão Humidade
    00:00 +19°C° 0 mm 1 m/s 743 mmHg 81%
    01:00 +19°C° 0 mm 1 m/s 743 mmHg 82%
    02:00 +18°C° 0 mm 1 m/s 743 mmHg 83%
    03:00 +18°C° 0 mm 1 m/s 743 mmHg 84%
    04:00 +16°C° 0 mm 1 m/s 743 mmHg 85%
    05:00 +19°C° 0 mm 1 m/s 743 mmHg 80%
    06:00 +21°C° 0 mm 1 m/s 743 mmHg 74%
    07:00 +23°C° 0 mm 1 m/s 743 mmHg 69%
    08:00 +24°C° 0 mm 1 m/s 743 mmHg 64%
    09:00 +26°C° 0 mm 2 m/s 743 mmHg 58%
    10:00 +27°C° 0 mm 2 m/s 743 mmHg 53%
    11:00 +28°C° 0 mm 2 m/s 743 mmHg 50%
    12:00 +28°C° 0 mm 2 m/s 742 mmHg 48%
    13:00 +29°C° 0 mm 2 m/s 742 mmHg 45%
    14:00 +29°C° 0 mm 2 m/s 742 mmHg 47%
    15:00 +29°C° 0 mm 2 m/s 742 mmHg 48%
    16:00 +28°C° 0 mm 3 m/s 742 mmHg 49%
    17:00 +27°C° 0 mm 2 m/s 742 mmHg 56%
    18:00 +25°C° 0 mm 2 m/s 742 mmHg 62%
    19:00 +24°C° 0 mm 2 m/s 742 mmHg 69%
    20:00 +23°C° 0 mm 2 m/s 742 mmHg 72%
    21:00 +21°C° 0 mm 2 m/s 743 mmHg 75%
    22:00 +20°C° 0 mm 2 m/s 743 mmHg 78%
    23:00 +19°C° 0 mm 2 m/s 743 mmHg 82%

    23 Julho, Segunda-feira

    Tempo Temperatura Precipitação Vento Pressão Humidade
    00:00 +19°C° 0 mm 2 m/s 743 mmHg 86%
    01:00 +18°C° 0 mm 2 m/s 743 mmHg 90%
    02:00 +18°C° 0 mm 3 m/s 743 mmHg 92%
    03:00 +18°C° 0 mm 3 m/s 744 mmHg 93%
    04:00 +17°C° 0 mm 3 m/s 744 mmHg 95%
    05:00 +18°C° 0 mm 3 m/s 744 mmHg 90%
    06:00 +20°C° 0 mm 4 m/s 744 mmHg 85%
    07:00 +21°C° 0 mm 4 m/s 745 mmHg 80%
    08:00 +22°C° 0,1 mm 4 m/s 745 mmHg 72%
    09:00 +23°C° 0,1 mm 5 m/s 745 mmHg 65%
    10:00 +26°C° 0,1 mm 5 m/s 745 mmHg 57%
    11:00 +26°C° 0 mm 5 m/s 745 mmHg 55%
    12:00 +27°C° 0 mm 5 m/s 745 mmHg 52%
    13:00 +27°C° 0 mm 5 m/s 744 mmHg 50%
    14:00 +27°C° 0 mm 5 m/s 744 mmHg 51%
    15:00 +27°C° 0 mm 5 m/s 744 mmHg 51%
    16:00 +27°C° 0 mm 5 m/s 744 mmHg 52%
    17:00 +26°C° 0 mm 4 m/s 745 mmHg 58%
    18:00 +23°C° 0 mm 4 m/s 745 mmHg 65%
    19:00 +22°C° 0 mm 3 m/s 745 mmHg 71%
    20:00 +21°C° 0 mm 3 m/s 745 mmHg 74%
    21:00 +20°C° 0 mm 3 m/s 745 mmHg 77%
    22:00 +19°C° 0 mm 3 m/s 746 mmHg 81%
    23:00 +18°C° 0 mm 3 m/s 745 mmHg 84%
    Mostrar mais